Location: Waldport
(44.4270°N, 124.0680°W)
Time: 01:38:30
(UTC-07:00)

Daily predictions for brighter satellites

Satellite Brightness Start Highest point End
(mag) Time Altitude Azimuth Time Altitude Azimuth Time Altitude Azimuth
Cosmos 1302 Rocket 3.9 00:04:22 58° SSW 00:05:26 85° WNW 00:10:46 10° NNE
CZ-4C R/B 4.5 00:08:03 33° NE 00:08:03 33° NE 00:10:51 10° N
Cosmos 1455 Rocket 4.2 00:08:14 33° ENE 00:08:14 33° ENE 00:11:26 10° NNE
ALOS 2 3.5 00:08:39 38° ENE 00:08:39 38° ENE 00:12:44 10° N
Meteor 2-21 Rocket 4.4 00:07:24 54° S 00:08:57 84° E 00:15:12 10° N
Meteor 2-16 Rocket 4.4 00:09:27 57° SSE 00:10:38 72° E 00:16:44 10° NNE
Cosmos 1934 Rocket 3.8 00:09:24 57° S 00:10:42 81° E 00:16:47 10° N
Terra 3.3 00:10:07 24° WSW 00:11:14 26° W 00:15:12 10° NW
Okean 1 Rocket 4.2 00:12:31 34° WSW 00:13:31 39° WNW 00:17:43 10° N
Cosmos 1315 Rocket 3.6 00:14:36 44° NE 00:14:36 44° NE 00:17:29 10° NNE
Cosmos 2123 Rocket 3.9 00:07:24 10° N 00:13:43 79° E 00:15:04 57° SSE
Okean 2 3.8 00:11:51 10° N 00:15:29 56° NE 00:15:29 56° NE
Cosmos 2082 Rocket 4.1 00:13:10 10° WNW 00:16:52 18° W 00:18:34 16° WSW
Genesis I 3.9 00:18:17 52° NNE 00:18:17 52° NNE 00:21:25 10° NE
Lacrosse 5 rocket 2.7 00:19:38 29° NE 00:19:38 29° NE 00:21:35 10° NE
Meteor 2-4 Rocket 3.5 00:17:00 10° NNW 00:22:28 81° W 00:23:10 68° SSW
Cosmos 2263 4.3 00:30:26 56° ESE 00:30:26 56° ESE 00:35:52 10° NNE
Cosmos 1346 Rocket 3.9 00:31:50 10° N 00:34:42 37° NE 00:34:42 37° NE
Iridium 4 Rocket 4.3 00:30:32 10° NNW 00:36:14 53° W 00:37:34 44° SW
Lacrosse 5 1.9 00:35:50 67° WSW 00:36:27 79° NW 00:41:35 10° NE
CZ-4B R/B 3.4 00:38:29 25° NNE 00:38:29 25° NNE 00:40:02 10° N
Cosmos 1544 Rocket 3.8 00:37:33 67° NNW 00:37:33 67° NNW 00:41:24 10° N
BREEZE-M DEB (TANK) 3.2 00:36:09 10° WNW 00:39:05 61° NNE 00:48:08 10° ESE
Cosmos 1503 Rocket 4.3 00:37:11 10° NNW 00:42:18 53° WSW 00:42:23 53° WSW
Cosmos 1400 Rocket 4.3 00:46:53 32° WNW 00:46:56 32° WNW 00:50:41 10° N
Cosmos 44 Rocket 4.4 00:42:27 10° NNW 00:47:17 39° NE 00:48:32 33° E
Cosmos 1536 4.1 00:47:51 34° WNW 00:47:51 34° WNW 00:51:14 10° N
Landsat 5 3.9 00:50:00 60° NNE 00:50:00 60° NNE 00:53:39 10° N
Cosmos 1833 4.4 00:45:20 10° NNW 00:50:56 62° ENE 00:51:44 56° E
GP-B 3.9 00:51:14 10° NNE 00:54:52 43° ENE 00:54:52 43° ENE
H-2A R/B 2.8 00:57:18 10° NNE 01:01:22 70° N 01:01:22 70° N
Cosmos 968 Rocket 3.9 00:57:21 10° NNW 01:02:29 52° ENE 01:02:57 51° E
CZ-2C R/B 3.9 01:02:04 37° E 01:02:35 38° ENE 01:07:04 10° N
Cosmos 1975 3.8 01:06:02 45° NNE 01:06:02 45° NNE 01:08:59 10° NNE
Cosmos 2369 Rocket 2.6 01:05:44 45° WSW 01:07:01 56° WNW 01:12:35 10° NNE
Cosmos 1447 Rocket 4.4 01:02:19 10° NNW 01:08:26 69° W 01:09:16 62° SW
NOSS 3-1 (A) 4.4 01:02:30 10° NW 01:09:45 48° WSW 01:11:04 45° SW
CZ-2C R/B 2.8 01:09:50 10° NNE 01:14:55 59° E 01:14:55 59° E
Cosmos 2219 3.7 01:12:01 10° NNW 01:17:34 53° ENE 01:18:42 45° E
Cosmos 2227 Rocket 4.4 01:15:34 10° N 01:19:38 20° NE 01:23:40 10° E
Cosmos 1825 Rocket 4.4 01:15:53 10° N 01:19:49 43° ENE 01:19:49 43° ENE
Cosmos 1066 Rocket 4.1 01:15:01 10° N 01:20:22 69° ENE 01:20:38 67° E
Cosmos 2100 Rocket 3.9 01:22:11 67° S 01:23:08 89° ESE 01:29:34 10° N
Cosmos 1818 3.5 01:27:59 73° W 01:28:23 77° NW 01:33:54 10° NNE
ATLAS 2AS CENTAUR R/B 2.9 01:23:10 10° NW 01:31:20 81° WSW 01:33:30 52° SSE
Cosmos 1656 Rocket 4.0 01:33:08 52° ESE 01:33:08 52° ESE 01:38:32 10° NE
ISS -0.8 01:33:14 10° NW 01:35:07 21° NNW 01:35:07 21° NNW
MOS 1-B Rocket 4.3 01:36:23 52° SW 01:37:07 55° W 01:43:49 10° NNW
Cosmos 1500 4.4 01:38:24 42° N 01:38:24 42° N 01:41:01 10° N
Cosmos 1459 Rocket 3.9 01:38:18 64° SW 01:39:09 74° W 01:45:15 10° N
Cosmos 2061 Rocket 4.0 01:38:08 62° SW 01:39:13 77° W 01:45:40 10° N
USA 234 4.3 01:33:38 10° NE 01:39:43 43° NNW 01:45:47 10° W
Cosmos 1241 Rocket 4.4 01:34:02 10° NW 01:40:31 75° WSW 01:41:20 66° S
Cosmos 2297 Rocket 4.4 01:36:51 10° N 01:40:59 20° NE 01:45:06 10° E
Cosmos 2016 Rocket 3.8 01:40:46 69° S 01:41:33 84° E 01:47:40 10° N
Cosmos 1943 Rocket 2.2 01:41:39 62° WSW 01:42:16 68° WNW 01:47:53 10° NNE
Cosmos 1777 Rocket 4.0 01:40:37 10° NNW 01:45:51 74° ENE 01:46:06 73° E
Cosmos 1802 Rocket 3.9 01:48:54 62° SW 01:49:51 73° W 01:56:10 10° N
BREEZE-M DEB (TANK) 3.4 01:47:22 10° WNW 01:57:18 64° N 01:58:52 34° E
Lacrosse 5 rocket 3.7 01:55:18 12° WNW 01:57:35 18° NNW 02:00:12 10° NNE
Cosmos 2173 Rocket 4.3 01:59:06 47° WSW 02:00:18 54° WNW 02:06:32 10° N
Cosmos 1864 Rocket 4.4 02:01:00 63° SSE 02:02:04 80° E 02:08:18 10° N
Cosmos 2228 4.0 02:05:51 39° E 02:05:51 39° E 02:09:32 10° NNE
PSLV R/B 4.5 02:08:48 54° NNW 02:08:48 54° NNW 02:12:06 10° NNW
Cosmos 1725 Rocket 3.9 02:16:53 61° SSW 02:17:59 78° W 02:24:12 10° N
Lacrosse 5 3.8 02:15:49 10° WNW 02:20:06 26° NNW 02:24:24 10° NE
Cosmos 1816 Rocket 4.4 02:14:04 10° N 02:20:23 89° WSW 02:21:48 57° S
Cosmos 1606 Rocket 3.9 02:21:26 55° NW 02:21:26 55° NW 02:25:14 10° N
SeaSat 1 2.4 02:20:46 67° SE 02:21:24 80° ENE 02:26:22 10° NNW
Tsikada Rocket 4.1 02:23:24 10° NNW 02:29:37 61° W 02:30:45 53° SW
Cosmos 1743 4.3 02:39:02 26° NW 02:39:02 26° NW 02:41:44 10° NNW
Cosmos 1812 Rocket 4.3 02:40:14 42° ESE 02:40:43 44° E 02:44:59 10° NNE
Cosmos 1340 3.8 02:38:04 10° NNW 02:40:38 36° NW 02:40:38 36° NW
Cosmos 2058 Rocket 3.4 02:42:19 55° WNW 02:42:19 55° WNW 02:46:32 10° N
CZ-2C R/B 4.3 02:43:08 26° W 02:43:08 26° W 02:46:40 10° NW
PSLV R/B 3.5 02:38:10 10° NNE 02:42:39 90° W 02:42:48 84° SSW
Cosmos 1898 Rocket 4.1 02:39:50 10° NNW 02:45:06 55° ENE 02:47:47 28° SE
Cosmos 1570 Rocket 4.2 02:45:47 54° WSW 02:46:40 63° WNW 02:51:59 10° NNE
SL-16 R/B 4.2 02:44:03 10° ESE 02:49:14 29° ENE 02:54:23 10° N
Cosmos 1697 Rocket 4.3 02:50:22 19° SE 02:52:29 24° ESE 02:56:55 10° NE
IRS-P3 4.2 02:48:43 10° NNE 02:54:05 69° ESE 02:55:23 50° SSE
Cosmos 2082 3.7 02:48:32 10° NNW 02:54:13 81° ENE 02:56:38 36° SSE
NOSS 3-4 (A) 4.2 02:47:26 10° NNW 02:54:17 62° NE 03:01:33 10° SE
NOSS 3-4 (C) 4.2 02:47:32 10° NNW 02:54:25 61° NE 03:01:43 10° SE
Cosmos 972 Rocket 3.8 02:49:45 10° NNW 02:54:43 79° WSW 02:55:34 62° S
CZ-2C R/B 4.3 02:51:05 10° NNW 02:54:53 21° WNW 02:56:26 18° W
Cosmos 1937 Rocket 4.3 02:51:15 10° N 02:56:17 49° ENE 02:59:50 19° SE
Meteor 2-9 Rocket 4.5 02:57:31 47° SW 02:58:51 59° WNW 03:04:35 10° N
Cosmos 1980 Rocket 4.3 02:58:10 12° SE 03:01:12 17° E 03:04:43 10° ENE
ATLAS CENTAUR R/B 2.5 03:00:50 39° SE 03:01:38 42° ESE 03:06:20 10° NE
Cosmos 44 4.3 02:59:03 10° NW 03:02:39 32° W 03:02:39 32° W
Cosmos 2227 Rocket 2.1 02:58:41 10° NNW 03:04:24 81° WSW 03:06:27 41° SSE
Cosmos 1666 4.0 03:05:40 28° WNW 03:05:40 28° WNW 03:08:33 10° NNW
ARIANE 5 R/B 4.0 03:07:57 10° NE 03:12:29 30° E 03:15:18 19° SE
ISS -1.7 03:14:22 27° E 03:14:22 27° E 03:16:03 10° ESE
SL-08 R/B 3.1 03:12:19 55° S 03:13:19 82° WSW 03:17:59 10° NNW
Meteor 2-5 Rocket 3.8 03:09:02 10° N 03:14:57 88° E 03:17:43 34° S
Resurs 1-4 Rocket 3.8 03:11:52 10° NE 03:16:14 26° E 03:19:44 14° SE
ADEOS 4.1 03:11:27 10° NNE 03:16:34 52° E 03:18:43 32° SSE
Okean 3 Rocket 3.8 03:12:22 10° N 03:16:46 64° E 03:18:15 39° SE
ATLAS 2AS CENTAUR R/B 4.4 03:16:06 10° WNW 03:20:53 18° WSW 03:20:53 18° WSW
Cosmos 1464 Rocket 3.9 03:19:00 38° S 03:21:36 86° W 03:28:00 10° N
Cosmos 2278 3.7 03:22:42 42° SW 03:24:36 72° WNW 03:30:18 10° NNE
Cosmos 405 Rocket 2.7 03:20:43 10° NNW 03:24:47 74° W 03:25:10 67° SW
Cosmos 2297 Rocket 2.1 03:20:01 10° NNW 03:25:41 77° WSW 03:28:45 28° SSE
Cosmos 2369 3.7 03:24:20 43° SW 03:26:17 79° WNW 03:32:00 10° NNE
NPP 3.6 03:21:03 10° N 03:26:28 75° WNW 03:28:20 42° SSW
Cosmos 1943 Rocket 4.5 03:24:18 10° WNW 03:27:09 14° NW 03:30:00 10° N
Landsat 4 4.5 03:28:55 38° W 03:28:55 38° W 03:32:04 10° NNW
Cosmos 1378 4.5 03:25:48 10° N 03:29:22 37° ENE 03:31:33 20° SE
Spot 4 Rocket 4.3 03:25:49 10° NNE 03:30:57 62° ESE 03:33:21 31° S
Cosmos 1766 4.2 03:33:18 29° SE 03:34:48 44° E 03:38:34 10° NNE
Cosmos 220 Rocket 4.2 03:32:50 10° NNW 03:37:00 46° WSW 03:37:10 45° WSW
Lacrosse 5 rocket 4.2 03:36:42 10° NNW 03:38:05 12° N 03:39:28 10° NNE
CBERS-1 4.1 03:33:17 10° N 03:38:25 68° WNW 03:40:19 38° SW
Cosmos 1814 Rocket 4.0 03:36:54 39° SSW 03:38:59 88° WNW 03:44:23 10° NNE
Cosmos 972 4.4 03:35:43 10° NNW 03:40:30 58° WSW 03:42:13 37° SSW
Cosmos 1076 Rocket 4.1 03:36:35 10° N 03:40:51 54° ENE 03:43:49 18° SSE
IRS-1D 4.1 03:36:07 10° NNE 03:40:56 49° E 03:43:53 22° SSE
Cosmos 2298 Rocket 4.4 03:36:38 10° NNW 03:41:39 44° WSW 03:42:57 37° SW
USA 161 1.5 03:42:19 71° E 03:42:21 72° ENE 03:45:09 10° N
ERS-2 2.0 03:38:55 10° NNE 03:42:41 87° WNW 03:43:28 54° SSW
GPS 2-04 Rocket1 4.5 03:46:08 19° SSE 03:46:08 19° SSE 03:47:51 10° SE
Abrixas 2.7 03:48:11 34° NW 03:49:20 71° NNE 03:52:23 10° ESE
Cosmos 1513 Rocket 4.5 03:47:45 31° SSW 03:50:40 64° W 03:56:42 10° N
Milstar 3 Cent rocket 3.9 03:53:53 16° SSE 03:54:01 16° SSE 03:57:49 10° SE
Meteor 1-24 Rocket 3.7 03:50:55 10° NNW 03:56:37 73° W 04:00:52 19° S
Meteor 1-22 Rocket 4.4 03:55:30 25° S 03:59:16 87° W 04:05:26 10° N
SeaSat 1 4.3 04:00:33 14° W 04:00:33 14° W 04:02:08 10° WNW
Cosmos 1441 Rocket 3.3 03:55:28 10° N 03:59:28 79° E 04:02:11 20° SSE
Cosmos 990 Rocket 4.0 03:54:52 10° NNW 04:00:05 66° WSW 04:04:07 17° S
Cosmos 1758 4.4 03:58:13 16° SSE 04:01:02 41° E 04:04:49 10° NNE
Okean O Rocket 3.7 03:57:37 10° NE 04:01:06 22° E 04:04:34 10° SE
EO 1 Del DPAF 3.6 03:58:07 14° SSE 04:01:22 65° ENE 04:05:14 10° N
Cosmos 468 Rocket 4.5 04:01:44 28° WSW 04:04:06 46° WNW 04:09:05 10° N
SL-24 R/B 4.2 04:01:05 21° S 04:04:22 70° WSW 04:08:51 10° NNW
Lacrosse 5 4.4 04:00:50 10° NW 04:04:34 20° N 04:08:17 10° NE
Cosmos 1805 4.3 04:02:32 16° SSE 04:05:23 42° E 04:09:06 10° NNE
Cosmos 1953 3.1 04:02:42 18° SSE 04:05:30 48° E 04:09:27 10° NNE
Cosmos 1707 3.7 04:02:16 10° NNW 04:05:43 30° W 04:06:09 29° WSW
NOSS 7 (E) 4.3 04:07:37 40° SW 04:08:44 82° NW 04:12:14 10° NE
Cosmos 1656 3.8 04:06:24 27° SW 04:09:33 64° WNW 04:15:12 10° NNE
UNK 3.9 04:05:34 10° WNW 04:09:49 34° N 04:11:59 10° ENE
Cosmos-2242 3.5 04:06:47 17° S 04:09:55 58° E 04:14:09 10° NNE
Cosmos 1408 Rocket 3.5 04:09:08 10° NNW 04:13:31 71° W 04:16:37 19° S
Cosmos 2227 4.5 04:09:25 10° NNW 04:15:13 74° ENE 04:20:58 10° SSE
NOSS 2-1 (D) 4.5 04:14:29 21° W 04:16:40 38° NW 04:21:03 10° NNE
Cosmos 1766 Rocket 3.5 04:12:48 10° NNW 04:17:12 70° W 04:20:34 17° S
CZ-2D R/B 2.2 04:12:04 10° NNE 04:17:35 87° ESE 04:21:48 17° SSW
NOSS 2-1 (C) 4.5 04:15:51 21° W 04:18:03 38° NW 04:22:27 10° NNE
Cosmos 1544 4.4 04:18:30 10° SSE 04:21:55 37° E 04:25:18 10° NNE
MTI 3.9 04:22:48 11° SSE 04:25:58 80° ENE 04:29:16 10° N
Cosmos 1437 3.1 04:23:11 10° N 04:26:32 69° E 04:29:51 10° SSE
Nadezhda 4 Rocket 4.3 04:23:54 10° NNW 04:29:44 45° W 04:34:38 15° SSW
MOS 1-B 4.4 04:24:46 10° NNE 04:30:37 87° ESE 04:35:58 12° SSW
In-Cosmos 22 4.0 04:26:15 10° NNW 04:31:32 76° W 04:36:49 10° S
SL-16 R/B 2.7 04:26:34 10° S 04:32:33 52° W 04:38:34 10° NNW
Cosmos 1125 Rocket 3.4 04:28:06 10° NNW 04:33:20 79° WSW 04:38:32 10° SSE
Cosmos 841 Rocket 3.7 04:31:43 20° SW 04:35:21 57° WNW 04:40:34 10° NNE
Cosmos 1697 Rocket 3.0 04:32:06 19° SW 04:36:03 54° WNW 04:41:37 10° NNE
Meteor 1-21 Rocket 4.3 04:31:20 10° NNW 04:37:18 84° W 04:43:13 10° S
Cosmos 1655 Rocket 4.2 04:32:02 10° N 04:38:29 83° E 04:44:53 10° S
Cosmos 1674 3.6 04:35:33 10° N 04:39:15 50° ENE 04:42:54 10° SSE
RESURS DK-1 2.8 04:35:15 10° NNW 04:39:23 66° ENE 04:43:29 10° SE
Cosmos 1842 Rocket 4.0 04:36:05 10° S 04:40:30 63° E 04:44:57 10° NNE
ATLAS CENTAUR R/B 2.9 04:37:10 15° WSW 04:40:51 34° NW 04:45:23 10° NNE
GEOS 3 Rocket 3.7 04:35:52 10° SSE 04:40:56 52° WSW 04:46:00 10° NW
Cosmos 1763 Rocket 4.0 04:37:39 18° SW 04:41:15 45° WNW 04:46:14 10° N
Cosmos 332 Rocket 4.2 04:37:01 10° S 04:41:42 60° ESE 04:46:29 10° NNE
Cosmos 1980 Rocket 2.2 04:39:58 16° SSW 04:44:30 73° WNW 04:50:12 10° NNE
NOSS 3-4 (A) 4.4 04:38:50 10° NW 04:44:57 33° WSW 04:51:21 10° S
NOSS 3-4 (C) 4.4 04:38:55 10° NW 04:45:06 33° WSW 04:51:33 10° S
CZ-2D R/B 3.6 04:41:40 10° NNE 04:46:03 86° W 04:50:26 10° SSW
Cosmos 2227 Rocket 4.0 04:45:47 10° WNW 04:47:28 11° W 04:48:11 11° WSW
ISS -2.0 04:47:28 15° W 04:49:02 21° SW 04:51:33 10° S
ARIANE 5 R/B 3.3 04:46:58 10° N 04:51:37 36° WNW 04:55:38 13° SW
Cosmos 1461 2.7 04:49:41 10° NW 04:53:51 75° WSW 04:57:48 10° SSE
Resurs 1-4 Rocket 2.6 04:51:16 10° N 04:56:15 43° WNW 05:00:50 12° SW
Cosmos 2322 Rocket 2.7 04:50:56 10° S 04:56:26 59° ESE 05:01:57 10° NNE
BREEZE-M DEB (TANK) 3.3 04:56:29 10° W 05:00:33 41° NNW 05:02:46 10° ENE
Cosmos 2026 Rocket 4.1 04:54:32 10° NNW 05:00:48 64° W 05:06:58 10° S
Cosmos 371 Rocket 3.7 04:56:38 10° S 05:01:22 62° ESE 05:06:08 10° NNE
Cosmos 1470 2.9 04:58:11 10° S 05:02:07 81° E 05:06:07 10° N
CZ-3 R/B 4.1 04:40:29 13° SW 05:02:26 33° S 05:10:24 10° ESE
PSLV R/B 3.7 05:01:09 10° N 05:05:02 76° WNW 05:08:47 10° SSW
Cosmos 540 Rocket 3.5 05:02:52 10° SSW 05:08:02 74° WNW 05:13:13 10° NNE
Cosmos 2297 Rocket 4.0 05:07:43 10° W 05:08:42 10° W 05:09:42 10° WSW
Cosmos 1634 Rocket 4.4 05:03:18 10° SSW 05:09:16 46° WNW 05:15:19 10° N
CZ-4B R/B 2.8 05:10:40 10° NNE 05:14:39 86° ESE 05:18:24 10° SSW
Cosmos 2151 3.1 05:11:37 10° N 05:15:58 86° E 05:20:16 10° S
Thor Agena Rocket 3.5 05:13:05 10° S 05:18:07 73° WSW 05:23:10 10° NNW
Lacrosse 5 rocket 3.8 05:15:38 10° NNW 05:18:30 21° NNE 05:21:22 10° ENE
CZ-2C R/B 4.1 05:17:27 10° S 05:21:55 44° W 05:26:20 10° NNW
UNKNOWN OBJECT B 4.2 05:19:31 10° NNW 05:22:42 24° WNW 05:25:47 10° WSW
GPS 2-04 Rocket1 4.3 05:21:10 10° WSW 05:23:56 18° SSW 05:26:35 10° SSE
Cosmos 1500 Rocket 4.2 05:20:34 10° NNW 05:24:37 37° W 05:28:37 10° SSW
Abrixas 3.8 05:22:40 10° W 05:25:07 22° SW 05:27:33 10° SSE
Cosmos 1538 Rocket 4.2 05:24:22 10° SSW 05:29:38 79° ESE 05:35:00 10° NNE
SL-16 R/B 2.3 05:24:15 10° SSW 05:29:55 83° WNW 05:35:39 10° NNE
